Location: Newark
(45.1000°N, 8.5833°E)
Time: 00:29:58
(UTC+00:00)

ISS - Pass Details

Date: 25 September 2019
Orbit: 411 x 421 km, 51.6° (Epoch: 19 October)

Event Time Altitude Azimuth Distance (km) Brightness Sun altitude
Rises 18:30:20 0° 265° (W) 2,340 1.6 -13.5°
Reaches altitude 10° 18:32:32 10° 274° (W) 1,480 0.4 -13.8°
Maximum altitude 18:35:38 36° 343° (NNW) 676 -2.5 -14.4°
Enters shadow 18:37:59 15° 46° (NE) 1,209 -1.7 -14.8°
